Location: Marcé
(47.5801°N, 0.3280°W)
Time: 23:55:29
(UTC+01:00)

S-56A Canister/Altair - Pass Details

Date: 30 November 2021
Orbit: 633 x 2499 km, 38.9° (Epoch: 17 January)

Event Time Altitude Azimuth Distance (km) Brightness Sun altitude
Rises 00:15:58 0° 197° (SSW) 5,005 - -63.2°
Reaches altitude 10° 00:22:03 10° 173° (S) 3,528 - -63.5°
Maximum altitude 00:25:19 13° 150° (SSE) 3,055 - -63.6°
Drops below altitude 10° 00:28:12 10° 127° (SE) 3,006 - -63.7°
Sets 00:32:24 0° 99° (E) 3,608 - -63.8°
